Weather in Aldan-Maadyr

Russia / Tyva Republic     51°17′45″N   90°58′38″E
temp.,
°C
wind,
m/s
gust,
m/s
humid.,
%
clouds,
%
prec.,
mm/h
press.,
hPa
HPBL,
m
5 march, fri
fri501:00−15e119365 0.0 103020
04:00−18ene019798 0.0 102920
07:00−20ene009798 0.1 102920
10:00−16ene0094100 0.0 102748
13:00−12ene1187100 0.0 1024243
16:00−10n1181100 0.1 1022295
19:00−14sw1188100 0.1 102720
22:00−17nne119112 0.0 103120
6 march, sat
sat601:00−18ne11946 0.0 103420
04:00−19nne119496 0.0 103320
07:00−20sse009698 0.0 103420
10:00−15sse1090100 0.0 103233
13:00−12e118891 0.0 1028209
16:00−10ene118681 0.0 1025176
19:00−16nne119454 0.0 102621
22:00−17nw019079 0.0 102620
7 march, sun
sun701:00−18n009341 0.0 102620
04:00−19wsw00950 0.0 102520
07:00−20n00961 0.0 102720
10:00−15ne009168 0.0 102634
13:00−11e118567 0.0 1023207
16:00−9e118479 0.0 1023182
19:00−14ne119185 0.0 102621
22:00−16ene018727 0.0 102820
8 march, mon
mon801:00−17nnw008652 0.0 102920
04:00−18w008799 0.0 102820
07:00−19wsw008978 0.0 103020
10:00−14ene11860 0.0 102745
13:00−10e11855 0.0 1024215
16:00−8e11840 0.0 1021191
19:00−14ene00930 0.0 102221
22:00−14nnw019077 0.0 102321
9 march, tue
tue901:00−14wsw018972 0.0 102420
04:00−14nnw1189100 0.0 102520
07:00−16nne119062 0.0 102720
10:00−12ese008825 0.0 102735
13:00−8e228413 0.0 1026209
16:00−6ene11828 0.0 1025174
19:00−11ene01894 0.0 102721
22:00−13ene01910 0.0 102821